Location: Newark
(45.9456°N, 15.4064°E)
Time: 15:27:31
(UTC+00:00)

SR - Pass Details

Date: 01 February 2020
Orbit: 575 x 880 km, 66.7° (Epoch: 23 February)

Event Time Altitude Azimuth Distance (km) Brightness Sun altitude
Rises 02:00:00 0° 330° (NNW) 3,440 - -45.0°
Reaches altitude 10° 02:03:36 10° 351° (N) 2,458 - -44.4°
Maximum altitude 02:07:00 16° 28° (NNE) 2,014 - -43.9°
Exits shadow 02:09:02 13° 53° (NE) 2,136 ? -43.5°
Drops below altitude 10° 02:10:17 10° 66° (ENE) 2,344 ? -43.3°
Sets 02:13:34 0° 88° (E) 3,202 ? -42.8°
